SCP
0 0 0 0 0 0 -0 -0 -0 -0 0 0 0 0 0 0 0 0 0 0 -0 0
0 0 0 0 0 -0 -0 -0 -0 -0 0 0 0 0 0 0 0 0 0 0 0 0
0 0 0 0 0 -0 0 -0 -0 -0 0 0 0 0 0 0 0 0 0 0 0 0
0 0 0 0 0 0 0 0 0 0 0 0 0 0 0 0 0 0 0 0 0 0
0 0 0 -0 -0 0 0 0 0 0 0 0 0 0 0 0 0 0 0 0 0 -0
0 0 -0 0 -0 -0 -0 -0 -0 -0 0 0 0 0 0 0 0 0 0 0 0 0
0 0 0 0 -0 -0 0 -0 -0 -0 0 0 0 0 0 0 0 0 0 0 0 0
0 -0 -0 0 -0 -0 -0 -0 -0 -0 -0 0 0 0 0 0 0 0 0 0 0 0
0 -0 -0 -0 -0 0 -0 -0 -0 -0 -0 -0 0 0 0 0 0 0 0 0 0 0
0 0 -0 -0 -0 -0 -0 -0 -0 0 -0 0 0 0 0 0 0 0 0 0 0 0
0 0 -0 -0 -0 -0 -0 -0 -0 0 0 0 -0 -0 -0 0 0 0 0 0 0 0
0 0 0 0 0 0 0 0 0 0 0 0 0 0 0 0 0 0 0 0 0 0
0 0 0 0 0 0 0 0 0 0 0 0 0 0 0 0 0 0 0 0 0 -0
-0 0 0 0 0 0 0 0 0 -0 0 0 0 0 0 -0 -0 -0 0 0 0 0
Wind_Speed_500mb
8 14 17 17 14 4 7 15 22 19 16 13 17 17 17 17 19 22 21 24 25 23
9 14 15 14 10 9 10 19 24 21 18 16 16 15 12 12 23 18 24 22 17 15
9 12 15 12 9 7 12 21 23 22 20 12 16 14 10 14 19 9 22 21 18 17
7 11 11 7 9 5 12 18 20 23 21 13 12 12 10 15 14 15 18 17 15 15
4 7 9 7 11 12 12 17 20 21 18 12 13 13 15 17 17 16 18 17 17 17
3 5 9 13 14 12 16 20 21 21 19 19 17 16 15 15 16 16 18 18 21 24
4 5 8 19 18 17 23 23 24 26 27 25 21 19 19 19 23 24 22 21 22 24
11 9 15 21 19 17 20 24 25 28 29 25 23 24 25 31 31 25 23 25 24 27
17 18 18 24 22 21 19 23 25 24 22 24 24 22 22 15 15 17 20 27 29 32
23 21 22 24 20 18 21 20 17 16 14 19 23 22 18 11 7 9 21 29 32 33
26 28 26 23 19 16 17 20 19 11 11 18 25 23 17 13 15 24 29 35 38 42
31 29 28 23 18 16 16 24 22 28 30 27 34 26 24 28 31 31 35 37 43 38
37 31 30 23 19 19 20 24 24 24 21 28 32 33 34 34 38 41 48 52 56 54
37 36 31 29 25 22 23 25 26 24 23 22 25 31 30 29 33 44 54 51 53 51
Wind_Direction_500mb
9 353 343 338 350 357 161 168 167 154 144 140 138 137 142 163 174 186 194 192 206 239
18 359 9 17 27 73 131 161 166 157 153 151 144 141 148 163 180 182 194 203 215 228
17 7 29 61 44 95 119 153 161 165 163 162 162 157 161 166 178 174 182 192 213 208
11 17 36 50 27 123 139 152 161 167 163 147 155 159 158 160 161 166 176 180 191 196
27 31 32 82 73 107 133 144 150 166 181 166 153 151 151 153 147 147 161 164 164 153
75 48 37 116 106 106 124 140 140 144 149 142 137 135 136 140 142 139 144 158 164 160
129 75 86 124 104 109 121 123 126 129 131 130 122 112 118 124 122 121 122 128 134 152
143 111 120 128 114 119 122 125 125 128 128 128 128 123 120 120 115 108 118 125 135 140
144 124 119 132 115 116 121 126 129 133 135 138 135 135 132 122 119 118 129 130 138 137
150 132 126 133 123 116 128 133 133 135 147 160 157 153 161 160 146 135 136 140 141 146
161 144 136 128 122 119 130 141 143 139 140 152 166 157 165 178 140 127 136 148 151 152
174 163 151 140 120 119 114 136 135 108 99 123 128 129 131 134 131 127 141 152 153 154
181 177 165 157 141 131 121 134 143 134 114 98 110 124 127 128 130 124 130 132 143 149
188 183 174 166 160 149 140 132 142 142 132 124 114 114 120 133 143 138 139 136 140 147
Wind_Speed_850mb
8 14 17 17 14 4 7 15 22 19 16 13 17 17 17 17 19 22 21 24 25 23
9 14 15 14 10 9 10 19 24 21 18 16 16 15 12 12 23 18 24 22 17 15
9 12 15 12 9 7 12 21 23 22 20 12 16 14 10 14 19 9 22 21 18 17
7 11 11 7 9 5 12 18 20 23 21 13 12 12 10 15 14 15 18 17 15 15
4 7 9 7 11 12 12 17 20 21 18 12 13 13 15 17 17 16 18 17 17 17
3 5 9 13 14 12 16 20 21 21 19 19 17 16 15 15 16 16 18 18 21 24
4 5 8 19 18 17 23 23 24 26 27 25 21 19 19 19 23 24 22 21 22 24
11 9 15 21 19 17 20 24 25 28 29 25 23 24 25 31 31 25 23 25 24 27
17 18 18 24 22 21 19 23 25 24 22 24 24 22 22 15 15 17 20 27 29 32
23 21 22 24 20 18 21 20 17 16 14 19 23 22 18 11 7 9 21 29 32 33
26 28 26 23 19 16 17 20 19 11 11 18 25 23 17 13 15 24 29 35 38 42
31 29 28 23 18 16 16 24 22 28 30 27 34 26 24 28 31 31 35 37 43 38
37 31 30 23 19 19 20 24 24 24 21 28 32 33 34 34 38 41 48 52 56 54
37 36 31 29 25 22 23 25 26 24 23 22 25 31 30 29 33 44 54 51 53 51
Wind_Direction_850mb
9 353 343 338 350 357 161 168 167 154 144 140 138 137 142 163 174 186 194 192 206 239
18 359 9 17 27 73 131 161 166 157 153 151 144 141 148 163 180 182 194 203 215 228
17 7 29 61 44 95 119 153 161 165 163 162 162 157 161 166 178 174 182 192 213 208
11 17 36 50 27 123 139 152 161 167 163 147 155 159 158 160 161 166 176 180 191 196
27 31 32 82 73 107 133 144 150 166 181 166 153 151 151 153 147 147 161 164 164 153
75 48 37 116 106 106 124 140 140 144 149 142 137 135 136 140 142 139 144 158 164 160
129 75 86 124 104 109 121 123 126 129 131 130 122 112 118 124 122 121 122 128 134 152
143 111 120 128 114 119 122 125 125 128 128 128 128 123 120 120 115 108 118 125 135 140
144 124 119 132 115 116 121 126 129 133 135 138 135 135 132 122 119 118 129 130 138 137
150 132 126 133 123 116 128 133 133 135 147 160 157 153 161 160 146 135 136 140 141 146
161 144 136 128 122 119 130 141 143 139 140 152 166 157 165 178 140 127 136 148 151 152
174 163 151 140 120 119 114 136 135 108 99 123 128 129 131 134 131 127 141 152 153 154
181 177 165 157 141 131 121 134 143 134 114 98 110 124 127 128 130 124 130 132 143 149
188 183 174 166 160 149 140 132 142 142 132 124 114 114 120 133 143 138 139 136 140 147